SAUDICOMSAT 4

Last updated on Wed Aug 19 2026 00:03:17 GMT+0000 (Coordinated Universal Time)

1 31127U 07012L 26230.60063775 .00000455 00000+0 92966-4 0 9990 2 31127 98.4049 204.4637 0064595 63.9795 296.8040 14.64564310 30426
UTC large
Height (km)
Speed (km/s)
/
Latitude / Longitude
Inclination (degrees)
Orbital Period (minutes)
Azimuth
Elevation
Range (km)
Doppler Factor

Next 0 passes for location: London (51.5072 / 0.1276)

No passes found over London.
SAUDICOMSAT 4